Preview of NWS' New Version of Forecast
This preview is not operational and should not be used for support decisions.

Regional Weather Roundup (RWR)

Issued by National Weather Service (NWS)

                            
000
ASUS43 KDTX 170510
RWRMI 
MICHIGAN HOURLY REGIONAL WEATHER ROUNDUP
NATIONAL WEATHER SERVICE DETROIT/PONTIAC MI
1200 AM EST SUN FEB 17 2019

NOTE: "FAIR" INDICATES FEW OR NO CLOUDS BELOW 12,000 FEET WITH NO
SIGNIFICANT WEATHER AND/OR OBSTRUCTION TO VISIBILITY.

MIZ047>049-052>055-059>063-066>070-074>076-081>083-170600-
SOUTHEAST LOWER MICHIGAN
  
CITY           SKY/WX    TMP DP  RH WIND       PRES   REMARKS
ADRIAN         CLOUDY    24  15  68 E9        30.08F WCI  14          
ALMA           FAIR       8   4  87 CALM      30.11S                  
ANN ARBOR      CLOUDY    24  17  74 E5        30.08F WCI  18          
BAD AXE        CLOUDY    19  15  84 CALM      30.12F                  
CARO           CLOUDY    16  14  91 CALM      30.12S                  
DETROIT CITY   CLOUDY    25  16  68 E7        30.12F WCI  17          
DETROIT        FLURRIES  25  14  63 E6        30.11F WCI  18          
FLINT          CLOUDY    21  14  74 E3        30.11F                  
GROSSE ILE     CLOUDY    25  17  73 E6        30.11S WCI  18          
HILLSDALE      CLOUDY    24  16  71 E12       30.03F WCI  13          
HOWELL         CLOUDY    23  15  70 E7        30.08S WCI  15          

CITY           SKY/WX    TMP DP  RH WIND       PRES   REMARKS
JACKSON        CLOUDY    24  16  71 E8        30.05F WCI  15          
LAMBERTVILLE   CLOUDY    26  19  75 E8        30.08F WCI  17          
LANSING        FAIR      15  11  83 E6        30.08F WCI   6          
LAPEER         CLOUDY    23  13  66 CALM      30.11S                  
MASON          CLOUDY    24  16  73 E6        30.08F WCI  17          
MONROE         CLOUDY    25  18  73 E7        30.09F WCI  17          
MT. CLEMENS    CLOUDY    25  18  75 E8          N/A  WCI  16          
PONTIAC        CLOUDY    23  14  68 E5        30.08F WCI  17          
PORT HOPE        N/A     24  13  62 N5        30.12F WCI  18          
PORT HURON     CLOUDY    25  16  68 NE5       30.12F WCI  19          
TRI CITIES     MOCLDY    12   9  87 E5        30.13S WCI   4          
MIDLAND        FAIR       9   6  89 CALM      30.13S                  
TROY           CLOUDY    25  14  63 E6        30.13S WCI  18          
SAGINAW HB     MOCLDY    12   9  85 E3        30.13S                  
$$
MIZ043>046-050>051-056>058-064>065-071>073-077>080-170600-
SOUTHWEST LOWER MICHIGAN
  
CITY           SKY/WX    TMP DP  RH WIND       PRES   REMARKS
BATTLE CREEK   CLOUDY    24  15  68 E7        30.05F WCI  16          
BENTON HARBOR  CLOUDY    24  16  71 E14G21    30.04F WCI  12          
BIG RAPIDS     FAIR      12   8  83 CALM      30.07S                  
COLDWATER      CLOUDY    25  18  74 E12G17    30.04F WCI  14          
FREMONT        FAIR      17  11  80 CALM      30.07F                  
HOLLAND        FAIR      19  12  74 E7        30.06F WCI  10          
GRAND RAPIDS   FAIR      16  10  77 E5        30.07F WCI   9          
IONIA          FAIR      15  12  90 E5        30.07F WCI   7          
KALAMAZOO      CLOUDY    24  16  71 E9        30.04F WCI  14          
LUDINGTON      FAIR      16  11  80 CALM      30.10S                  
MARSHALL       CLOUDY    24  17  73 E9        30.05F WCI  15          
MOUNT PLEASANT FAIR      10   5  81 CALM      30.10F                  
MUSKEGON       FAIR      18  10  71 E6        30.08F WCI  10          
SOUTH HAVEN    CLOUDY    25  16  69 SE12      30.05S WCI  14          
$$
MIZ016>042-170600-
NORTHERN LOWER MICHIGAN
  
CITY           SKY/WX    TMP DP  RH WIND       PRES   REMARKS
ALPENA         CLOUDY     3  -1  83 CALM      30.15F                  
BEAVER ISLAND  MOCLDY     0  -3  84 CALM      30.15F                  
BELLAIRE       FAIR       1  -3  82 CALM      30.15F                  
CADILLAC       FAIR       2  -3  81 CALM      30.06S                  
CHARLEVOIX     FAIR       6   3  88 CALM      30.17F                  
FRANKFORT      FAIR      15  11  83 NE5       30.12F WCI   8          
GAYLORD        FAIR      -3  -7  82 CALM      30.09S                  
GRAYLING       FAIR     -11 -15  82 CALM      30.10S                  
HARBOR SPRINGS FAIR       9   7  92 CALM      30.15S                  
HOUGHTON LAKE  FAIR       7   3  84 NE5       30.10R WCI  -2          
MANISTEE       FAIR      14  10  84 E10       30.10F WCI   1          
OSCODA         FAIR       4   1  86 CALM      30.14F                  
PELLSTON       FAIR       0  -4  83 CALM      30.16F                  
ROGERS CITY    FAIR       7   5  90 W5        30.16S WCI  -2          
TRAVERSE CITY  FAIR       7   3  84 CALM      30.12F                  
$$
MIZ007>008-015-170600-
EASTERN UPPER MICHIGAN
  
CITY           SKY/WX    TMP DP  RH WIND       PRES   REMARKS
KINROSS        FAIR       1  -2  87 N3        30.15S                  
MACKINAC ISLAN FAIR       8   6  89 CALM      30.15S                  
NEWBERRY       LGT SNOW  15  13  92 MISG      30.13F                  
S. S. MARIE    FAIR       6   1  80 CALM      30.15F                  
MUNISING         N/A     18  11  74 CALM      30.15F                  
$$
MIZ004>006-011>014-085-170600-
CENTRAL UPPER MICHIGAN
  
CITY           SKY/WX    TMP DP  RH WIND       PRES   REMARKS
MANISTIQUE     CLOUDY    16   6  64 NE3       30.15F                  
ESCANABA       FAIR      10   8  92 N5        30.16F WCI   2          
MENOMINEE      CLOUDY    13   9  84 NE8       30.15R WCI   2          
SAWYER-GWINN   FLURRIES   5   2  86 CALM      30.10F                  
$$
MIZ001>003-009>011-084-170600-
WESTERN UPPER MICHIGAN
  
CITY           SKY/WX    TMP DP  RH WIND       PRES   REMARKS
IRON MOUNTAIN  FAIR       2  -1  88 CALM      30.10S                  
HOUGHTON       FAIR       8  -1  66 NE5       30.12S WCI   0          
COPPER HARBOR    N/A      2  -3  80 W5        30.16F WCI  -8          
IRONWOOD       FAIR      11   8  88 E10       30.09R WCI  -3          
$$

ABBREVIATIONS USED IN REMARKS
   TC - TEMPERATURE IN CELSIUS
  WCI - WIND CHILL INDEX
   HX - HEAT INDEX
  VSB - VISIBILITY